Time,TemperatureF,DewpointF,PressureIn,WindDirection,WindDirectionDegrees,WindSpeedMPH,WindSpeedGustMPH,Humidity,HourlyPrecipIn,Conditions,Clouds,dailyrainin,SolarRadiationWatts/m^2,SoftwareType,DateUTC
2013-07-02 00:01:00,68.0,50.0,-100.00,SSW,195,0.0,0.0,53,0.00,,,0.00,0.000000,,2013-07-02 07:01:00,
2013-07-02 01:02:00,67.0,46.0,-100.00,NE,50,0.0,0.0,47,-99.99,,,0.00,0.000000,,2013-07-02 08:02:00,
2013-07-02 01:12:00,67.0,46.0,-100.00,NE,50,0.0,0.0,47,-99.99,,,0.00,0.000000,,2013-07-02 08:12:00,
2013-07-02 02:11:00,65.0,43.0,-100.00,North,2,0.0,4.0,44,-99.99,,,0.00,0.000000,,2013-07-02 09:11:00,
2013-07-02 04:42:00,65.0,43.0,-100.00,North,357,0.0,0.0,44,-99.99,,,0.00,0.000000,,2013-07-02 11:42:00,
2013-07-02 04:52:00,65.0,43.0,-100.00,North,357,0.0,0.0,44,-99.99,,,0.00,0.000000,,2013-07-02 11:52:00,
2013-07-02 05:01:00,65.0,43.0,-100.00,North,357,0.0,0.0,44,-99.99,,,0.00,0.000000,,2013-07-02 12:01:00,
2013-07-02 07:43:00,69.0,42.0,-100.00,NW,320,0.0,6.0,38,-99.99,,,0.00,71.000000,,2013-07-02 14:43:00,
2013-07-02 07:53:00,69.0,42.0,-100.00,NW,320,0.0,6.0,38,-99.99,,,0.00,71.000000,,2013-07-02 14:53:00,
2013-07-02 08:02:00,69.0,42.0,-100.00,NW,320,0.0,6.0,38,-99.99,,,0.00,71.000000,,2013-07-02 15:02:00,
2013-07-02 08:11:00,69.0,42.0,-100.00,NW,320,0.0,6.0,38,-99.99,,,0.00,71.000000,,2013-07-02 15:11:00,
2013-07-02 08:44:00,80.0,46.0,-100.00,SSW,196,0.0,3.0,30,-99.99,,,0.00,306.000000,,2013-07-02 15:44:00,
2013-07-02 08:53:00,80.0,46.0,-100.00,SSW,196,0.0,3.0,30,-99.99,,,0.00,306.000000,,2013-07-02 15:53:00,
2013-07-02 09:01:00,80.0,46.0,-100.00,SSW,196,0.0,3.0,30,-99.99,,,0.00,306.000000,,2013-07-02 16:01:00,
2013-07-02 09:11:00,80.0,46.0,-100.00,SSW,196,0.0,3.0,30,-99.99,,,0.00,306.000000,,2013-07-02 16:11:00,
2013-07-02 09:43:00,90.0,42.0,-100.00,North,358,2.0,5.0,19,0.00,,,0.00,458.000000,,2013-07-02 16:43:00,
2013-07-02 09:52:00,90.0,42.0,-100.00,North,358,2.0,5.0,19,0.00,,,0.00,458.000000,,2013-07-02 16:52:00,
2013-07-02 10:02:00,90.0,42.0,-100.00,North,358,2.0,5.0,19,0.00,,,0.00,458.000000,,2013-07-02 17:02:00,
2013-07-02 10:11:00,90.0,42.0,-100.00,North,358,2.0,5.0,19,0.00,,,0.00,458.000000,,2013-07-02 17:11:00,
2013-07-02 13:43:00,95.0,45.0,-100.00,WSW,253,9.0,18.0,18,-99.99,,,0.00,1293.000000,,2013-07-02 20:43:00,
2013-07-02 13:52:00,95.0,45.0,-100.00,WSW,253,9.0,18.0,18,-99.99,,,0.00,1293.000000,,2013-07-02 20:52:00,
2013-07-02 18:43:00,82.0,55.0,-100.00,WNW,292,4.0,10.0,39,-99.99,,,0.00,326.000000,,2013-07-03 01:43:00,
2013-07-02 18:59:00,82.0,55.0,-100.00,WNW,292,4.0,10.0,39,-99.99,,,0.00,326.000000,,2013-07-03 01:59:00,
2013-07-02 19:12:00,82.0,55.0,-100.00,WNW,292,4.0,10.0,39,-99.99,,,0.00,326.000000,,2013-07-03 02:12:00,
2013-07-02 19:45:00,79.0,53.0,-100.00,West,264,2.0,9.0,40,0.00,,,0.00,179.000000,,2013-07-03 02:45:00,
2013-07-02 20:02:00,79.0,53.0,-100.00,West,264,2.0,9.0,40,0.00,,,0.00,179.000000,,2013-07-03 03:02:00,
2013-07-02 20:12:00,79.0,53.0,-100.00,West,264,2.0,9.0,40,0.00,,,0.00,179.000000,,2013-07-03 03:12:00,
2013-07-02 20:49:00,77.0,44.0,-100.00,West,274,0.0,5.0,31,0.00,,,0.00,33.000000,,2013-07-03 03:49:00,
2013-07-02 20:58:00,77.0,44.0,-100.00,West,274,0.0,5.0,31,0.00,,,0.00,33.000000,,2013-07-03 03:58:00,
2013-07-02 21:01:00,77.0,44.0,-100.00,West,274,0.0,5.0,31,0.00,,,0.00,33.000000,,2013-07-03 04:01:00,
2013-07-02 21:11:00,77.0,44.0,-100.00,West,274,0.0,5.0,31,0.00,,,0.00,33.000000,,2013-07-03 04:11:00,
2013-07-02 21:43:00,77.0,38.0,-100.00,West,277,7.0,11.0,25,0.00,,,0.00,0.000000,,2013-07-03 04:43:00,
2013-07-02 21:52:00,77.0,38.0,-100.00,West,277,7.0,11.0,25,0.00,,,0.00,0.000000,,2013-07-03 04:52:00,
2013-07-02 22:01:00,77.0,38.0,-100.00,West,277,7.0,11.0,25,0.00,,,0.00,0.000000,,2013-07-03 05:01:00,
2013-07-02 22:11:00,77.0,38.0,-100.00,West,277,7.0,11.0,25,0.00,,,0.00,0.000000,,2013-07-03 05:11:00,
2013-07-02 22:48:00,75.0,38.0,-100.00,WSW,252,2.0,9.0,26,0.00,,,0.00,0.000000,,2013-07-03 05:48:00,
2013-07-02 22:58:00,75.0,38.0,-100.00,WSW,252,2.0,9.0,26,0.00,,,0.00,0.000000,,2013-07-03 05:58:00,
2013-07-02 23:02:00,75.0,38.0,-100.00,WSW,252,2.0,9.0,26,0.00,,,0.00,0.000000,,2013-07-03 06:02:00,
2013-07-02 23:12:00,75.0,38.0,-100.00,WSW,252,2.0,9.0,26,0.00,,,0.00,0.000000,,2013-07-03 06:12:00,
2013-07-02 23:50:00,73.0,39.0,-100.00,South,191,0.0,6.0,29,0.00,,,0.00,0.000000,,2013-07-03 06:50:00,
2013-07-02 23:57:00,73.0,39.0,-100.00,South,191,0.0,6.0,29,0.00,,,0.00,0.000000,,2013-07-03 06:57:00,